STARLINK-38061, 69715

Orbit data source: Space-Track

STARLINK-38061, 69715 is a payload satellite owned by SpaceX/Seattle (US) in SSO that was launched on Sun, 28 Jun 2026 UTC via an FALCON 9 launch vehicle from the Air Force Western Test Range (AFWTR). Payload-class satellites include a variety of spacecraft equipped with specific instruments for various scientific and technological missions. These include communications satellites like Starlink; space stations such as the ISS; scientific satellites like the Hubble; Earth observation satellites from companies like Planet Labs, Umbra, and HawkEye 360; GPS; miniature CubeSats for education and research; and military/defense satellites.

Loading next visibility...
Identifier
69715, 2026-147M
Orbit
SSO
Country
Flag of USUS
Related business
Manufacturer
SpaceX/Seattle
Mission
Operational Commercial Communications
Bus & Motor
STARLINK V2MO, Unknown motor
Mass
575 kg wet, ~530 kg dry
Launch date (UTC)
2026-06-28 (2 months ago)
Launch vehicle
FALCON 9
Launch site
Air Force Western Test Range (AFWTR)
Object type
Payload
Rocket body
Debris
Shape & HBR
Box + 1 Pan, 17.7 m
Radar Cross Section
41.120 m², Large (>1 m²)

Expand to show TLE details & history
Last TLE update: 2 days ago

TLE from 2 days ago
0 STARLINK-38061
1 69715U 26147M   26235.57179671  .00019715  00000-0  61086-3 0  9996
2 69715  97.2858 272.3334 0002145  83.5568 276.5919 15.33472556  9953
Epoch: 2026-08-23T13:43Z
TLE epoch observation values (Epoch: 2026-08-23T13:43:23.235Z)
Latitude
-0.00004°
Longitude
94.62066°
Altitude
468.405 km
Speed
7.632 km/s
True Right ascension
18h 09m 20s
True Declination
0° 00' 00"
Sunlit
Object was in full shadow at epoch
Visualization orbit readout
Latitude
Unknown
Longitude
Unknown
Altitude
Unknown
Speed
Unknown
Apparent Right ascension
Unknown
Apparent Declination
Unknown
Sunlit
N/A
Visualization observer readout
Local Sidereal Time
00:12:42
Azimuth
Unknown
Elevation
Unknown
Doppler factor
Unknown
Orbital elements
Apogee altitude
463.871 km
Perigee altitude
460.937 km
Semi-major axis
6,840.541 km
Eccentricity
0.00021
Inclination
97.2858°
RAAN
272.3334°
Arg. of periapsis
83.5568°
True anomaly
276.56748°
Mean anomaly
276.5919°
Eccentric anomaly
276.57969°
Mean motion
3.83626 °/min
Orbital period
93.84 mins
BSTAR
0.00061086
Loading maneuver chart data...
Computing Atmospheric mass density...
Loading historical data...
Loading historical data...
Loading historical data...
Loading historical data...
Loading historical data...
Loading historical data...
Loading historical data...

Documentation

Showing up to 5 results
|